Location: Crni Vrh Observatory
(45.9460°N, 14.0712°E)
Time: 16:50:54

N. Korean satellite - Visible Passes

Search period start: 22 March 2018 00:00
Search period end: 01 April 2018 01:00
Orbit: 460 x 512 km, 97.2° (Epoch: 21 March)

Date Brightness Start Highest point End Pass type
(mag) Time Alt. Az. Time Alt. Az. Time Alt. Az.
23 Mar 10.3 19:08:01 10° WSW 19:09:27 12° W 19:10:54 10° WNW visible
27 Mar 10.2 20:05:57 10° WSW 20:07:34 12° W 20:09:13 10° WNW visible
31 Mar 10.2 20:03:51 10° WSW 20:05:38 13° W 20:07:28 10° WNW visible
